Theta_e
323 325 325 326 329 329 334 337 338 338 335 332 332 332 336 340 343 351 350 351 347 355 337 336 334 340 345 344 343 340 344 343 339 339 339 334 326 324 324 328 328 327 325 322 320 319 321 325 329
323 324 325 327 331 332 333 335 335 336 334 332 331 332 334 340 345 348 350 349 346 356 340 337 333 340 345 345 344 344 344 345 342 340 341 336 327 325 324 324 326 325 322 320 319 320 325 327 329
322 323 326 330 332 333 333 334 332 333 331 331 332 335 338 344 345 349 353 350 347 354 350 339 334 341 345 345 344 344 344 345 345 342 343 337 328 325 323 323 322 321 320 319 320 322 327 328 328
322 323 325 330 332 333 333 329 331 330 330 330 331 334 338 350 350 350 353 349 349 352 350 336 335 342 345 345 344 344 344 345 346 343 343 339 329 326 322 321 321 320 319 321 322 324 326 326 326
321 323 328 330 332 333 332 328 328 330 330 330 330 335 341 348 352 350 347 348 350 350 350 343 337 343 344 343 344 344 344 345 346 345 343 340 331 327 322 321 320 319 320 322 323 324 324 325 324
322 324 328 331 332 331 331 329 328 329 329 329 330 331 336 333 351 350 347 348 347 348 351 342 338 342 342 339 340 340 342 344 346 345 343 340 332 326 322 320 320 320 321 321 321 322 322 322 322
322 326 328 329 331 331 331 328 329 329 329 329 329 331 333 329 334 352 349 347 347 347 350 353 339 342 340 338 336 337 340 344 346 346 344 340 333 326 322 320 320 320 321 321 320 320 320 320 319
319 324 327 327 328 330 330 328 328 328 328 328 327 330 332 327 332 347 351 349 346 348 348 351 348 340 339 337 337 336 340 343 346 346 344 341 334 328 322 320 320 320 320 319 319 319 319 319 319
319 321 322 324 325 328 328 327 326 326 327 326 326 326 328 326 329 341 350 349 347 346 346 349 348 348 347 346 338 338 337 340 341 342 343 339 336 330 324 320 319 320 319 319 319 319 319 319 318
321 321 322 322 323 323 325 324 323 323 327 326 326 326 325 325 327 333 345 348 346 346 346 348 349 348 347 344 346 336 336 335 335 337 337 338 338 341 338 329 320 319 319 319 319 319 319 318 322
320 321 322 322 322 322 322 322 322 322 323 325 327 326 325 324 326 326 329 342 346 346 345 347 349 350 347 344 346 345 345 344 340 341 339 335 342 342 335 334 321 319 318 318 319 319 318 319 330
320 320 320 321 321 320 321 319 320 320 321 320 321 322 322 322 323 324 325 327 340 346 346 347 349 351 349 346 346 348 345 345 342 342 342 339 342 340 336 337 336 320 325 323 328 327 324 332 333
320 320 319 319 320 319 318 319 319 319 319 319 319 319 319 320 321 323 325 326 328 341 347 347 349 353 351 347 346 348 345 345 343 342 341 343 343 341 340 337 337 332 334 328 333 333 334 332 333
319 319 319 318 319 319 319 319 318 318 318 319 318 319 319 319 320 322 324 325 326 331 342 348 349 351 354 347 348 347 347 346 344 341 340 329 344 342 341 337 338 337 336 336 335 333 333 329 341
319 319 319 319 319 319 319 320 320 318 319 319 319 319 320 320 320 321 323 325 326 327 331 346 349 352 352 351 347 350 349 348 346 343 340 324 325 336 334 337 337 338 338 335 336 334 333 334 338
319 319 319 321 320 319 318 319 321 319 319 318 318 319 319 320 320 321 322 323 326 330 330 337 348 351 352 352 351 350 349 347 347 340 342 333 329 325 325 334 337 339 338 334 336 335 334 334 337
319 319 320 320 320 319 318 319 320 319 319 319 319 319 319 319 320 320 321 323 324 325 333 341 346 349 351 353 352 351 350 349 345 346 343 336 329 324 325 335 334 333 338 339 336 335 328 335 339
319 319 318 318 319 319 318 319 319 319 319 319 319 319 319 319 319 319 321 322 323 324 327 342 349 351 352 353 353 351 351 349 348 347 346 345 342 325 325 332 334 330 329 337 330 335 335 335 336
318 319 319 319 319 319 319 320 320 320 319 320 320 319 319 319 319 320 320 320 321 323 324 321 340 351 352 354 354 352 352 351 348 347 347 346 346 343 332 330 337 334 336 333 335 337 332 337 336
318 318 319 319 320 319 320 320 321 322 321 321 321 320 320 320 319 319 320 319 320 322 324 326 324 341 351 352 353 352 351 351 351 349 347 347 349 347 336 325 330 335 331 332 334 330 332 330 338
319 319 319 320 320 320 320 321 322 322 322 321 320 320 320 319 319 319 319 320 320 321 323 325 325 326 344 342 351 352 351 351 351 351 349 347 348 347 341 328 333 343 341 333 324 324 325 326 338
319 319 319 319 319 321 322 323 323 323 323 322 321 321 320 320 320 319 319 320 320 320 320 321 324 328 327 347 345 350 350 352 351 351 349 349 348 346 345 341 344 339 346 341 340 331 330 332 337
319 319 320 321 321 322 323 323 323 323 322 322 322 320 320 319 319 319 319 319 320 320 320 323 323 324 330 329 343 347 348 347 347 349 348 348 349 346 345 346 346 340 343 342 343 344 333 334 330
319 319 320 321 322 323 323 324 323 322 321 320 320 320 319 318 318 319 320 320 320 321 321 321 322 322 323 331 332 344 347 347 346 347 346 346 346 339 329 346 346 344 344 345 341 340 333 330 334
320 322 325 325 325 324 323 321 321 320 319 320 321 319 319 320 320 321 320 321 322 321 322 322 323 324 323 324 332 335 343 345 347 346 347 346 347 347 340 339 342 339 339 339 337 335 335 333 339
321 323 324 325 324 323 322 320 319 319 319 319 319 319 318 318 318 319 319 320 320 321 321 322 322 324 326 324 324 333 336 342 343 345 345 344 345 346 348 347 343 332 328 337 341 338 343 344 341
320 322 321 322 321 320 319 318 319 319 321 321 319 317 318 317 317 317 318 318 318 319 320 321 322 323 325 327 324 329 336 341 342 344 343 344 343 346 346 345 339 337 343 339 345 344 344 343 342
319 318 319 320 322 322 318 317 316 318 318 317 318 316 316 315 315 315 315 316 317 318 318 319 320 322 324 327 326 326 336 341 342 343 343 344 344 346 346 341 340 345 346 347 345 345 343 342 342
320 320 318 319 320 322 320 317 318 317 317 317 317 315 316 316 316 316 315 315 315 317 317 317 318 321 322 325 327 327 331 339 341 341 343 342 343 346 342 346 346 347 346 344 343 343 343 343 342
317 317 316 319 320 320 320 320 318 318 317 316 316 315 316 316 317 316 315 315 315 315 316 316 317 319 322 323 326 327 331 338 340 343 342 340 341 344 342 345 341 341 341 342 342 343 342 341 342
Wind_Speed
8 10 11 12 8 8 18 21 11 1 4 2 5 9 9 15 12 4 4 3 14 21 27 26 25 27 27 25 24 23 21 20 19 18 15 13 14 16 17 17 16 14 12 11 11 11 12 13 11
10 10 13 16 12 15 15 20 13 9 5 3 9 9 10 9 9 5 2 6 16 19 25 27 25 27 27 26 25 23 22 20 19 18 15 13 14 16 16 16 15 13 12 11 11 11 12 11 10
12 11 16 14 15 17 14 16 8 5 4 6 5 3 7 9 10 5 1 10 18 17 22 25 26 27 27 27 26 23 23 21 20 19 15 13 14 15 16 15 14 13 11 11 11 11 11 10 9
13 15 18 14 23 23 22 3 7 4 7 4 3 7 4 7 6 6 4 13 19 17 19 22 27 27 26 26 26 24 23 23 22 19 16 14 15 16 16 15 14 13 12 11 11 10 10 9 8
18 16 15 18 23 21 6 2 2 9 5 5 3 2 9 8 7 3 9 15 16 16 18 19 27 27 26 25 25 24 24 24 24 21 17 15 15 16 16 15 14 13 12 11 10 10 9 8 6
23 22 16 19 23 22 8 9 11 11 8 8 5 4 10 9 6 5 8 11 13 15 17 18 27 26 25 24 24 23 24 26 25 22 18 16 16 17 17 16 15 13 12 11 10 9 8 7 6
23 16 21 24 22 18 15 16 16 15 14 8 5 9 10 9 7 3 7 10 12 14 17 17 28 27 26 25 23 22 24 26 26 23 20 17 18 18 18 17 15 13 12 11 10 9 8 7 5
28 17 26 23 20 20 21 18 20 19 11 13 5 6 5 9 8 3 6 9 13 15 16 17 24 28 28 26 24 22 23 25 25 24 22 20 19 19 19 18 17 15 13 12 11 10 8 6 5
25 17 20 26 23 22 21 13 18 22 18 16 13 13 9 8 5 3 8 10 13 15 17 17 20 23 24 22 27 26 24 25 25 24 24 22 21 21 21 19 18 16 16 14 12 11 9 6 5
14 17 24 19 18 18 20 14 21 17 23 24 21 19 16 12 7 5 10 11 14 16 17 17 20 22 23 21 22 29 28 27 27 27 27 25 21 16 15 17 20 19 17 16 14 12 10 8 6
23 20 20 18 5 6 10 15 17 18 21 26 23 20 18 16 12 11 11 15 15 16 17 18 21 22 23 22 21 22 21 22 25 24 25 28 20 17 20 18 21 20 18 16 15 13 11 8 4
18 21 28 14 8 14 15 19 20 19 23 20 23 21 19 21 18 18 16 15 18 19 19 19 20 23 25 22 23 20 23 23 22 23 26 24 22 21 20 17 16 21 17 15 13 11 9 8 12
16 16 14 16 14 16 18 19 20 24 22 20 21 23 24 26 25 22 19 17 16 20 20 21 21 23 27 30 24 23 24 24 24 22 26 23 24 24 20 19 15 17 14 16 14 12 13 13 10
18 21 12 17 20 19 17 18 19 18 16 19 20 19 21 23 25 25 22 20 19 20 22 23 25 27 28 34 28 31 28 26 29 28 30 33 26 26 23 24 21 19 17 16 16 15 14 11 10
6 11 13 15 17 15 14 17 19 24 20 18 18 19 19 20 20 23 24 23 21 20 23 25 28 27 31 30 35 28 25 26 28 28 29 33 37 35 30 26 26 22 20 22 19 17 15 13 11
14 14 15 19 19 14 10 14 9 7 8 12 15 15 15 16 17 19 18 19 17 16 20 26 24 26 31 31 29 30 27 31 27 27 31 35 38 39 38 31 27 24 23 24 18 18 14 13 11
12 14 19 9 12 11 14 12 1 2 10 13 16 17 17 19 19 18 17 17 15 14 17 20 26 25 29 30 30 28 29 31 32 30 36 36 38 39 41 31 32 30 23 22 17 17 18 15 14
10 17 13 7 5 12 14 17 14 16 17 18 17 18 17 19 19 19 18 17 16 14 14 20 21 26 29 30 30 26 30 34 35 37 35 34 37 39 41 33 30 30 29 23 23 21 17 17 16
10 13 12 10 4 10 14 16 14 15 17 18 18 19 19 19 19 18 19 18 17 15 16 17 23 25 26 28 29 28 29 30 33 32 33 32 35 34 37 31 28 34 29 28 23 24 25 18 17
12 13 13 12 10 10 15 17 17 17 19 22 21 20 19 18 19 19 20 19 21 18 16 17 20 26 30 27 29 28 28 30 28 30 33 36 38 38 35 37 34 44 39 35 32 32 26 21 18
13 14 14 13 11 13 16 21 23 20 20 19 14 17 18 19 20 21 22 22 21 21 17 16 19 23 29 29 29 29 30 30 31 33 34 38 38 36 36 44 47 36 33 33 36 32 32 26 18
13 10 9 9 12 12 13 15 17 17 16 12 15 15 15 16 17 19 19 18 21 25 25 21 17 19 24 30 32 33 31 33 37 35 33 33 34 36 35 37 39 44 32 32 33 34 32 26 25
11 10 9 14 16 17 19 12 16 17 15 11 6 11 14 18 19 16 21 23 18 16 19 17 20 21 21 27 36 36 38 36 34 32 33 36 35 36 35 36 36 33 35 34 32 29 31 27 24
11 13 18 20 17 16 21 17 8 5 10 11 12 17 20 22 22 20 23 20 19 19 20 22 23 25 25 23 30 38 39 41 33 32 34 36 38 31 34 40 39 37 37 36 37 36 35 27 28
15 14 13 14 12 13 8 10 10 14 8 8 8 8 12 16 15 16 16 17 18 18 18 20 23 27 28 26 26 33 41 41 41 37 36 31 30 31 36 37 43 37 37 36 36 31 29 32 33
13 7 9 14 14 17 21 13 10 1 8 5 6 8 11 11 16 17 20 20 21 20 21 21 22 22 24 29 30 30 37 41 42 40 35 36 32 31 34 39 42 36 36 32 28 28 27 27 27
4 8 5 11 14 14 15 18 20 13 8 8 6 14 8 8 13 21 20 18 21 21 22 23 22 23 23 25 29 31 34 40 40 40 41 37 34 34 35 34 34 34 29 28 29 29 29 26 25
11 11 9 6 7 11 8 14 12 8 7 7 11 16 12 16 20 18 22 24 21 22 23 21 22 23 24 24 27 29 33 37 40 40 41 39 35 36 45 38 30 32 30 30 29 27 28 26 26
8 11 8 7 8 8 12 7 14 15 12 12 13 20 22 25 28 19 20 26 25 25 25 23 22 24 25 24 24 29 31 35 37 40 39 43 40 39 33 33 27 27 26 27 28 26 23 24 24
12 13 14 10 9 10 11 16 19 5 10 14 20 19 20 23 26 27 22 22 26 23 27 23 23 22 22 23 20 22 29 31 34 35 42 41 41 39 36 22 28 27 26 25 25 25 22 22 22
Wind_Direction
264 302 276 257 243 230 245 234 243 149 209 206 309 256 275 318 352 22 111 156 158 162 167 167 169 168 170 173 172 173 173 172 168 163 158 152 158 158 156 154 151 152 152 149 145 135 132 130 122
257 277 262 260 237 244 230 243 190 227 15 329 254 228 252 254 36 69 130 140 158 164 168 170 172 173 173 178 176 177 179 179 175 171 165 160 164 165 164 162 161 162 158 152 144 141 137 133 126
250 257 263 231 237 247 251 203 199 107 228 255 267 232 334 5 43 352 206 153 162 164 168 177 175 177 179 181 181 183 185 184 181 179 172 170 172 173 171 170 169 168 162 155 149 146 141 137 128
242 237 242 257 238 234 259 80 76 227 201 229 324 247 111 23 343 320 179 157 167 167 167 183 178 180 182 186 188 188 192 189 186 185 181 179 182 182 180 177 175 174 167 159 152 150 149 140 131
225 249 234 228 238 254 239 286 99 259 310 275 327 39 96 45 23 120 130 153 168 168 170 191 181 182 185 190 195 196 198 195 190 189 188 188 190 191 188 184 183 178 171 163 162 158 155 152 150
220 221 240 235 235 236 202 252 251 247 268 267 258 299 83 49 37 124 141 164 172 174 178 193 184 187 187 190 195 198 199 198 195 194 194 196 197 198 194 192 188 181 178 174 173 167 166 168 170
233 222 232 244 243 237 200 235 257 256 248 232 36 277 120 50 11 151 168 174 182 184 182 186 186 190 191 191 192 193 195 199 198 200 202 205 205 203 199 196 193 188 186 185 185 183 180 182 187
225 243 237 234 252 248 231 223 245 256 260 271 285 255 170 37 357 208 192 188 188 190 190 189 187 193 193 195 194 193 196 201 206 207 208 211 211 209 206 200 196 194 195 194 195 194 194 194 204
222 237 236 240 238 247 239 217 248 254 263 269 252 282 288 316 321 228 209 200 193 195 193 193 193 194 191 197 200 197 200 202 212 216 216 215 215 215 210 205 202 200 200 202 201 204 209 213 227
221 230 238 235 237 253 252 215 249 263 245 243 252 254 255 266 255 251 228 216 203 202 202 200 198 198 194 195 206 204 204 208 210 216 219 216 208 212 206 215 207 204 207 206 208 213 216 227 239
221 242 230 236 255 248 254 246 244 249 252 257 263 265 266 262 252 263 258 236 216 214 209 207 204 201 198 194 205 204 202 206 211 210 216 213 208 206 195 217 214 212 210 213 215 221 226 237 238
227 236 253 252 208 245 241 258 265 249 256 261 266 269 268 262 262 260 255 250 235 217 216 211 210 202 202 201 206 206 200 204 205 207 209 209 200 205 201 203 207 212 214 209 229 226 233 233 241
218 247 237 255 243 231 243 244 257 258 259 256 256 258 257 256 255 251 248 249 249 233 216 219 214 211 208 194 209 206 202 210 203 207 214 200 202 207 201 201 203 211 203 217 204 211 238 240 248
212 233 219 237 239 235 234 248 240 251 247 252 251 255 256 253 252 246 243 244 240 236 229 220 218 221 214 204 202 209 202 208 206 203 211 208 205 213 206 196 198 205 200 211 212 214 223 240 235
224 233 227 230 233 242 245 255 237 249 246 252 259 270 264 261 257 248 242 245 242 241 236 224 219 218 228 222 206 212 209 203 208 200 219 218 216 215 211 206 207 204 203 204 213 213 226 223 231
237 227 248 215 211 222 226 263 216 192 211 236 244 255 269 268 261 254 244 249 252 247 242 227 225 221 226 227 219 212 210 211 215 216 214 223 220 217 220 215 209 207 206 218 211 222 219 240 233
206 243 215 164 186 231 200 258 127 173 243 238 259 266 259 258 261 252 252 254 256 257 235 225 220 217 227 229 223 215 217 219 207 215 211 228 226 219 223 213 215 212 204 214 207 218 223 227 231
241 207 245 264 230 203 248 252 254 266 262 264 260 254 255 260 246 251 253 248 249 253 241 221 224 223 214 225 230 222 218 215 214 209 214 218 229 224 222 218 213 224 222 213 218 218 224 222 233
322 292 291 289 285 286 275 278 275 274 269 264 262 258 248 247 250 245 242 252 256 256 246 234 223 226 221 219 218 217 220 224 220 214 219 218 232 230 219 214 227 226 216 216 215 222 219 225 230
262 262 260 260 260 269 278 277 281 276 273 274 273 270 265 256 250 248 247 251 258 264 264 249 247 225 228 220 224 222 219 223 222 218 217 216 219 220 212 222 233 238 222 224 209 224 229 232 226
243 261 268 280 305 289 278 266 254 250 249 258 253 261 270 270 268 265 263 263 264 263 270 273 266 245 230 228 226 227 220 223 221 218 215 223 224 226 219 223 217 226 230 228 232 235 237 234 233
255 243 273 278 270 273 309 296 287 275 261 251 261 256 267 287 288 285 277 259 260 265 270 269 267 264 246 232 222 222 219 215 214 214 214 216 226 224 219 221 225 218 225 222 231 227 229 226 212
273 332 284 281 278 277 269 258 265 254 246 259 26 354 333 316 311 304 298 286 303 267 265 274 279 276 266 241 231 222 223 226 220 217 217 211 220 225 221 223 223 228 222 230 216 230 224 231 240
282 291 272 265 260 257 258 252 283 329 353 347 358 337 324 304 298 310 299 302 299 293 287 285 284 279 275 261 242 232 226 225 219 221 223 220 223 229 250 225 229 226 226 220 230 223 238 242 239
236 255 276 266 243 255 297 325 318 319 22 27 335 332 329 338 324 306 300 301 305 300 296 295 291 285 276 271 260 242 237 232 223 218 216 215 219 217 227 225 227 226 230 232 235 233 235 237 220
296 259 276 295 292 299 322 298 288 332 146 166 260 279 295 316 316 315 310 317 308 300 296 290 294 293 284 269 261 252 239 237 231 226 221 218 217 217 221 221 215 219 225 224 223 229 228 227 231
346 270 321 293 286 276 264 254 245 243 120 196 2 298 305 312 307 309 299 296 297 307 302 294 298 304 298 280 259 254 247 236 231 229 227 222 223 215 211 221 211 210 208 213 218 221 225 227 231
255 302 277 243 280 289 304 322 296 29 343 265 276 316 304 292 290 294 296 302 288 292 293 300 304 305 303 292 264 249 247 238 235 227 227 219 218 213 208 215 211 205 206 212 217 218 226 228 229
183 239 215 234 248 272 295 282 0 337 333 326 316 309 302 303 304 294 296 289 299 294 292 298 304 299 305 301 279 249 243 240 236 230 224 217 211 215 204 207 185 198 203 211 217 216 219 223 223
290 299 297 271 247 244 268 273 273 306 277 271 279 310 318 325 320 314 303 294 290 290 297 300 297 301 298 303 292 259 249 240 238 232 225 221 213 212 220 170 188 198 202 207 216 215 215 220 219